Location: Recife
(8.0585°S, 34.8848°W)
Time: 10:25:02
(UTC-03:00)

Vanguard 2 Rocket - Pass Details

Date: 19 April 2026
Orbit: 553 x 3286 km, 32.9° (Epoch: 8 May)

Event Time Altitude Azimuth Distance (km) Brightness Sun altitude
Rises 09:34:39 0° 229° (SW) 5,420 10.5 57.7°
Reaches altitude 10° 09:38:28 10° 218° (SW) 4,795 10.4 58.4°
Maximum altitude 09:51:18 33° 159° (SSE) 4,173 10.6 60.9°
Drops below altitude 10° 10:07:58 10° 102° (ESE) 6,235 11.5 63.8°
Sets 10:13:49 0° 93° (E) 7,210 11.7 64.8°
